EW9439 Weather Reports


time (UTC)temp
F
wind
direction
speed
knots
gust
knots
rain 1hr
in
rain 24hr
in
rain mn
in
humidity
%
barometer
mb
20260906051520 71 198 0.0 0.0 0.00 0.90 0.00 98 1008.8
20260906050004 71 198 0.0 0.0 0.00 0.90 0.00 98 1008.9
20260906044506 71 198 0.0 0.0 0.00 0.90 0.00 98 1008.9
20260906043016 71 198 0.0 0.0 0.00 0.90 0.00 98 1008.7
20260906041552 71 198 0.0 0.0 0.00 0.90 0.00 98 1008.4
20260906040118 72 198 0.0 0.0 0.00 0.90 0.90 98 1008.6
20260906034539 72 198 0.0 0.0 0.00 0.90 0.90 98 1008.8
20260906033038 72 198 0.0 0.0 0.00 0.90 0.90 98 1008.9
20260906031523 72 198 0.0 0.0 0.00 0.90 0.90 98 1009.1
20260906030026 72 198 0.0 0.0 0.00 0.90 0.90 98 1009.3
20260906024530 72 198 0.0 0.0 0.00 0.90 0.90 97 1009.3
20260906023028 72 198 0.0 0.0 0.00 0.90 0.90 97 1009.2
20260906021531 72 198 0.0 0.0 0.00 0.90 0.90 97 1009.3
20260906020034 72 198 0.0 0.0 0.00 0.90 0.90 97 1009.1
20260906014537 72 198 0.0 0.0 0.00 0.90 0.90 96 1009.1
20260906013047 72 198 0.0 0.0 0.00 0.90 0.90 96 1009.1
20260906011555 72 198 0.0 0.0 0.00 0.90 0.90 96 1009.0
20260906010005 72 198 0.0 0.0 0.00 0.90 0.90 96 1008.7
20260906004511 72 198 0.0 0.0 0.00 0.90 0.90 96 1008.2
20260906003017 72 198 0.0 0.0 0.00 0.90 0.90 96 1007.7
20260906001513 72 198 0.0 0.0 0.00 0.90 0.90 96 1007.4
20260906000015 72 198 0.0 0.0 0.00 0.90 0.90 96 1006.9
20260905234516 72 198 0.0 0.0 0.01 0.90 0.90 95 1006.3
20260905233017 72 198 0.0 0.0 0.28 0.90 0.90 94 1006.2
20260905231521 71 198 0.0 0.0 0.90 0.90 0.90 93 1006.7
20260905230020 72 198 0.0 0.0 0.90 0.90 0.90 89 1006.9
20260905224603 73 150 0.0 0.9 0.89 0.89 0.89 89 1007.8
20260905223026 77 333 0.0 7.0 0.56 0.56 0.61 87 1009.1
20260905221528 84 117 0.0 0.0 0.00 0.00 0.00 73 1007.1
20260905220032 92 145 0.0 0.0 0.00 0.00 0.00 61 1006.7
20260905214543 92 102 0.0 0.0 0.00 0.00 0.00 60 1005.9
20260905213042 92 102 0.0 0.0 0.00 0.00 0.00 58 1005.9
20260905211550 92 102 0.0 0.0 0.00 0.00 0.00 59 1005.9
20260905210053 92 102 0.0 0.0 0.00 0.00 0.00 60 1006.2
20260905204537 93 102 0.0 0.0 0.00 0.00 0.00 59 1006.5
20260905203037 93 102 0.0 0.0 0.00 0.00 0.00 59 1006.6
20260905201534 93 102 0.0 0.0 0.00 0.00 0.00 59 1006.8
20260905200036 94 102 0.0 0.0 0.00 0.00 0.00 55 1006.9
20260905194544 95 102 0.0 0.0 0.00 0.00 0.00 54 1007.1
20260905193042 96 102 0.0 0.0 0.00 0.00 0.00 56 1007.1
20260905191542 95 102 0.0 0.0 0.00 0.00 0.00 54 1007.3
20260905190044 95 102 0.0 0.0 0.00 0.00 0.00 54 1007.6
20260905184557 94 117 0.0 0.0 0.00 0.00 0.00 54 1007.9
20260905183050 94 106 0.0 0.0 0.00 0.00 0.00 58 1008.0
20260905181550 93 161 0.0 0.0 0.00 0.00 0.00 59 1008.3
20260905180100 93 155 0.0 0.0 0.00 0.00 0.00 61 1008.4
20260905174552 94 155 0.0 0.0 0.00 0.00 0.00 58 1008.7
20260905173128 93 172 0.0 0.9 0.00 0.00 0.00 57 1008.7
20260905173002 93 172 0.0 0.9 0.00 0.00 0.00 59 1008.8
20260905171503 93 170 0.0 0.9 0.00 0.00 0.00 63 1009.0
20260905170006 93 63 0.0 0.9 0.00 0.00 0.00 61 1009.1
20260905164513 92 355 0.0 0.9 0.00 0.00 0.00 63 1009.3
20260905163006 92 112 0.0 0.0 0.00 0.00 0.00 64 1009.4
20260905161508 91 88 0.0 0.0 0.00 0.00 0.00 66 1009.7
20260905160012 90 317 0.0 0.0 0.00 0.00 0.00 68 1009.9
20260905154512 90 317 0.0 0.0 0.00 0.00 0.00 69 1010.1
20260905153016 89 317 0.0 0.0 0.00 0.00 0.00 70 1010.2
20260905151518 88 317 0.0 0.0 0.00 0.00 0.00 72 1010.4
20260905150013 88 315 0.0 0.0 0.00 0.00 0.00 72 1010.3
20260905144522 86 314 0.0 0.0 0.00 0.00 0.00 74 1010.3
20260905143015 85 314 0.0 0.0 0.00 0.00 0.00 76 1010.4
20260905141515 84 314 0.0 0.0 0.00 0.00 0.00 78 1010.5
20260905140017 83 314 0.0 0.0 0.00 0.00 0.00 81 1010.6
20260905134519 83 314 0.0 0.0 0.00 0.00 0.00 83 1010.6
20260905133032 81 314 0.0 0.0 0.00 0.00 0.00 88 1010.8
20260905131527 78 314 0.0 0.0 0.00 0.00 0.00 92 1010.9
20260905130023 76 314 0.0 0.0 0.00 0.00 0.00 96 1011.0
20260905124527 74 314 0.0 0.0 0.00 0.00 0.00 98 1010.9
20260905123035 73 314 0.0 0.0 0.00 0.00 0.00 97 1010.9
20260905121542 72 314 0.0 0.0 0.00 0.00 0.00 96 1010.8
20260905120037 72 314 0.0 0.0 0.00 0.01 0.00 96 1010.7
20260905114539 72 313 0.0 0.0 0.00 0.01 0.00 96 1010.5
20260905113041 72 313 0.0 0.0 0.00 0.01 0.00 96 1010.4
20260905111549 72 313 0.0 0.0 0.00 0.01 0.00 96 1010.2
20260905110053 72 313 0.0 0.0 0.00 0.01 0.00 96 1010.1
20260905104552 72 313 0.0 0.0 0.00 0.01 0.00 95 1010.0
20260905103058 73 313 0.0 0.0 0.00 0.01 0.00 95 1010.1
20260905101601 73 313 0.0 0.0 0.00 0.01 0.00 95 1009.9
20260905100120 73 313 0.0 0.0 0.00 0.01 0.00 95 1010.0
20260905094559 73 313 0.0 0.0 0.00 0.01 0.00 95 1009.8
20260905094501 73 313 0.0 0.0 0.00 0.01 0.00 95 1009.8
20260905093004 73 313 0.0 0.0 0.00 0.01 0.00 95 1009.6
20260905091510 73 313 0.0 0.0 0.00 0.01 0.00 95 1009.6
20260905090010 74 313 0.0 0.0 0.00 0.01 0.00 95 1009.7
20260905084510 74 313 0.0 0.0 0.00 0.01 0.00 95 1009.7
20260905083016 74 313 0.0 0.0 0.00 0.01 0.00 95 1009.6
20260905081518 74 313 0.0 0.0 0.00 0.01 0.00 95 1009.7
20260905080022 74 313 0.0 0.0 0.00 0.01 0.00 94 1009.7
20260905074524 74 313 0.0 0.0 0.00 0.01 0.00 94 1009.6
20260905073021 74 313 0.0 0.0 0.00 0.01 0.00 94 1009.6
20260905071524 75 313 0.0 0.0 0.00 0.01 0.00 94 1009.6
20260905070024 75 313 0.0 0.0 0.00 0.01 0.00 94 1009.6
20260905064526 75 313 0.0 0.0 0.00 0.01 0.00 93 1009.5
20260905063034 75 313 0.0 0.0 0.00 0.01 0.00 94 1009.4
20260905061544 75 313 0.0 0.0 0.00 0.01 0.00 93 1009.4
20260905060045 76 313 0.0 0.0 0.00 0.01 0.00 93 1009.7
20260905054612 76 313 0.0 0.0 0.00 0.01 0.00 92 1009.9
20260905053043 76 313 0.0 0.0 0.00 0.01 0.00 92 1010.1